Regional Weather Roundup
Issued by NWS

Home | Current Version | Previous Version | Graphics & Text | Print | Product List | Glossary On
Versions: 1 2 3 4 5 6 7 8 9 10 11 12 13 14 15 16 17 18 19 20 21 22 23 24 25 26 27 28 29 30 31 32 33 34 35 36 37 38 39 40 41 42 43 44 45 46 47 48 49 50
000
ASUS43 KMKX 250420
RWRWI

WISCONSIN REGIONAL WEATHER ROUNDUP
NATIONAL WEATHER SERVICE MILWAUKEE/SULLIVAN WI
1100 PM CDT THU JUL 24 2014

NOTE: "FAIR" INDICATES FEW OR NO CLOUDS BELOW 12,000 FEET WITH NO
SIGNIFICANT WEATHER AND/OR OBSTRUCTIONS TO VISIBILITY.

WIZ001-002-006>008-014>016-023>028-250500-
NORTHWEST WISCONSIN

CITY           SKY/WX    TMP DP  RH WIND       PRES   REMARKS
SUPERIOR ARPT  CLOUDY    60  56  87 CALM      29.90F
ASHLAND        CLOUDY    65  59  81 S5        29.93F
HAYWARD        LGT RAIN  68  58  70 S5        29.96F
SIREN          CLOUDY    68  59  73 S6        29.94F
RICE LAKE      PTCLDY    67  58  73 E5        29.99F
LADYSMITH      PTCLDY    64  59  82 SE5       30.01F
EAU CLAIRE     CLEAR     67  58  72 CALM      29.97S
MENOMONIE      CLEAR     65  60  83 E5        29.97F
NEW RICHMOND   PTCLDY    65  59  82 SE3       29.97F
OSCEOLA        CLOUDY    69  61  75 SE3       29.98F
$$

WIZ003>005-009-010-017-018-250500-
NORTH CENTRAL WISCONSIN

CITY           SKY/WX    TMP DP  RH WIND       PRES   REMARKS
WOODRUFF       MOCLDY    59  51  73 CALM      30.01F
RHINELANDER    MOCLDY    61  55  81 CALM      30.02F
EAGLE RIVER    MOCLDY    57  55  94 CALM      30.01F
LAND O LAKES   MOCLDY    55  54  95 CALM      30.01F
PHILLIPS       PTCLDY    61  58  88 CALM      30.00F
TOMAHAWK       MOCLDY    57  55  92 CALM      30.02F
MEDFORD        MOCLDY    58  56  94 CALM      30.02S
MERRILL        MOCLDY    58  56  93 CALM      30.02F
$$

WIZ029-030-035-036-043>047-250500-
CENTRAL WISCONSIN

CITY           SKY/WX    TMP DP  RH WIND       PRES   REMARKS
WAUSAU         MOCLDY    66  56  70 E3        30.01R
MOSINEE        MOCLDY    63  57  82 CALM      30.03S
MARSHFIELD     PTCLDY    65  58  78 CALM      30.02R
STEVENS POINT  CLOUDY    64  55  70 CALM      30.03R
WAUPACA        MOCLDY    67  58  71 CALM      30.01S
WAUTOMA        PTCLDY    62  57  83 CALM      30.02S
WISC RAPIDS    PTCLDY    66  55  67 SW3       30.02S
CAMP DOUGLAS   PTCLDY    59  59 100 SE5       30.00F
$$

WIZ011>013-019>022-031-037>040-048>050-250500-
NORTHEAST WISCONSIN

CITY           SKY/WX    TMP DP  RH WIND       PRES   REMARKS
ANTIGO         MOCLDY    57  54  90 CALM      30.04S
STURGEON BAY   MOCLDY    61  43  51 S10       30.03R
GREEN BAY      MOCLDY    63  45  51 S8        30.03R
MANITOWOC      MOCLDY    62  44  51 SW9       30.04R
APPLETON       MOCLDY    64  50  59 S9        30.02S
CLINTONVILLE   CLOUDY    64  54  68 S6        30.02R
OSHKOSH        CLOUDY    63  48  58 S12       30.02R
$$

WIZ032>034-041-042-053>061-250500-
SOUTHWEST WISCONSIN

CITY           SKY/WX    TMP DP  RH WIND       PRES   REMARKS
LA CROSSE      CLEAR     70  60  70 SE5       29.97R
SPARTA         CLEAR     62  56  80 CALM      30.00S
VIROQUA        FAIR      64  59  85 SE3       30.01S
BOSCOBEL       CLEAR     65  59  81 CALM      30.00R
PRAIRIE DU CHI CLEAR     66  58  76 NE3       30.00R
PLATTEVILLE    FAIR      64  58  79 SE8       30.01S
$$

WIZ056-057-062-063-064-067-068-250500-
SOUTH CENTRAL WISCONSIN

CITY           SKY/WX    TMP DP  RH WIND       PRES   REMARKS
BARABOO/DELLS  PTCLDY    63  56  76 S6        30.01F
LONE ROCK      CLEAR     67  58  72 CALM      30.01R
WATERTOWN      PTCLDY    60  47  61 SE6       30.04R
MADISON        CLEAR     69  57  65 VRB5      30.02S
MIDDLETON      FAIR      66  55  67 SW3       30.03R
MONROE         PTCLDY    63  57  82 S7        30.01F
JANESVILLE     CLEAR     61  52  72 SE7       30.03S
$$

WIZ051-052-058>065-066-070>072-250500-
SOUTHEAST WISCONSIN

CITY           SKY/WX    TMP DP  RH WIND       PRES   REMARKS
MILWAUKEE      PTCLDY    62  43  49 S5        30.05R
WAUKESHA       MOCLDY    59  43  55 S3        30.06S
MILWAUKEE/TIMM PTCLDY    61  39  44 S5        30.06S
RACINE         PTCLDY    60  51  72 S5        30.06F
BURLINGTON     PTCLDY    54  48  80 CALM      30.05S
KENOSHA        CLEAR     60  49  66 S6        30.06S
FOND DU LAC    CLOUDY    62  45  53 S8        30.03R
SHEBOYGAN      PTCLDY    57  46  66 S3        30.04R
WEST BEND      CLOUDY    59  41  51 CALM      30.05S
JUNEAU         PTCLDY    61  42  50 SE7       30.05R
$$

LSZ147-162-250500-
LAKE SUPERIOR

STATION/POSITION TIME  TEMP    WIND        PRES    WAVE
                       AIR SEA DIR/SP/G            HT/PER
                 (UTC) (F)     (DEG/KT/KT) (MB)    (FT/S)
$$

LMZ867-665-643>646-250500-
LAKE MICHIGAN

STATION/POSITION TIME  TEMP    WIND        PRES    WAVE
                       AIR SEA DIR/SP/G            HT/PER
                 (UTC) (F)     (DEG/KT/KT) (MB)    (FT/S)
$$

TC  - TEMPERATURE IN CELSIUS
VSB - VISIBILITY IN STATUTE MILES
WCI - WIND CHILL INDEX
HX  - HEAT INDEX



USA.gov is the U.S. government's official web portal to all federal, state and local government web resources and services.